Regional Weather Roundup
Issued by NWS

Home | Current Version | Previous Version | Text Only | Print | Product List | Glossary Off
Versions: 1 2 3 4 5 6 7 8 9 10 11 12 13 14 15 16 17 18 19 20 21 22 23 24 25 26 27 28 29 30 31 32 33 34 35 36 37 38 39 40 41 42 43 44 45 46 47 48 49 50

858
ASUS43 KLOT 191403
RWRIL

ILLINOIS REGIONAL WEATHER ROUNDUP
NATIONAL WEATHER SERVICE CHICAGO/ROMEOVILLE IL
900 AM CDT THU APR 19 2018

NOTE: "FAIR" INDICATES FEW OR NO CLOUDS BELOW 12,000 FEET WITH NO
SIGNIFICANT WEATHER AND/OR OBSTRUCTIONS TO VISIBILITY.

* THESE STATIONS ARE NOT UNDER NWS QUALITY CONTROL. THEY ALSO MAY NOT
  REPORT WEATHER SUCH AS PRECIPITATION OR FOG.

ILZ001-002-007-009-015-016-024-191500-
NORTHWEST ILLINOIS

CITY           SKY/WX    TMP DP  RH WIND       PRES   REMARKS
MOLINE         FAIR      38  28  67 N13       30.35R WCI  30
STERLING*      FAIR      35  27  72 N10       30.34R WCI  27
SAVANNA*       FAIR      35  27  71 N9        30.35R WCI  28
$$

ILZ003-004-008-010-011-017-018-191500-
NORTH CENTRAL ILLINOIS

CITY           SKY/WX    TMP DP  RH WIND       PRES   REMARKS
ROCKFORD       FAIR      35  24  64 N12       30.34R WCI  27
FREEPORT*      FAIR      31  24  74 N7        30.35R WCI  25
ROCHELLE*      FAIR      32  26  77 N12       30.32R WCI  23
DE KALB*       FAIR      32  26  77 N12       30.31R WCI  23
$$

ILZ005-006-012>014-019>023-191500-
NORTHEAST ILLINOIS

CITY           SKY/WX    TMP DP  RH WIND       PRES   REMARKS
CHICAGO-OHARE  FAIR      36  27  69 N12       30.27R WCI  28
CHICAGO-MIDWAY FAIR      39  30  70 N12       30.27R WCI  32
AURORA         FAIR      33  27  78 N9        30.29R WCI  25
LANSING*       FAIR      38  32  78 N13       30.26R WCI  31
JOLIET*        FAIR      37  30  75 N8        30.29R WCI  31
WAUKEGAN       FAIR      36  26  67 N12       30.28R WCI  28
DUPAGE AIRPORT FAIR      36  28  73 N12       30.27R WCI  28
KANKAKEE*      FAIR      39  33  79 N10       30.27R WCI  32
WHEELING       FAIR      38  28  67 N8        30.29R WCI  32
MORRIS*        FAIR      35  29  81 N6        30.29R WCI  29
ROMEOVILLE*    FAIR      36  30  79 N8        30.28R WCI  29
NORTHERLY ISL    N/A     38  28  68 NW20        N/A  WCI  28
$$

LMZ740>746-191500-
SOUTHERN LAKE MICHIGAN

STATION/POSITION SKY/WX   TEMP    WIND        PRES    VSBY  WAVE
                          AIR SEA DIR/SP/G                  HT/PER
                          (F)     (DEG/KT/KT) (MB)    (MI)  (FT/S)
HARRISON CRIB              36     340/ 21/ 23   N/A
BURNHAM HARBOR             38     330/ 14/ 19   N/A
CALUMET HARBOR             36     330/ 15/ 21 1023.7R
BURNS HARBOR               37     350/ 15/ 20 1024.4R
MICHIGAN CITY              38     330/ 18/ 20   N/A
$$

ILZ025>027-034>036-040-047-049-050-058-095>099-191500-
WEST-CENTRAL ILLINOIS

CITY           SKY/WX    TMP DP  RH WIND       PRES   REMARKS
QUINCY         SUNNY     40  31  70 N10       30.35R
GALESBURG*     FAIR      42  34  73 N13       30.35R
MACOMB*        SUNNY     40  31  70 N13       30.36R
JACKSONVILLE*  CLOUDY    38  30  75 N13       30.34R WCI  30
PITTSFIELD*    PTSUNNY   39  32  75 N8        30.35R WCI  34
$$

ILZ028>032-037-038-041>044-048-051>054-059>061-191500-
CENTRAL ILLINOIS

CITY           SKY/WX    TMP DP  RH WIND       PRES   REMARKS
PONTIAC        FAIR      38  34  85 N12       30.31R WCI  30
BLOOMINGTON    PTSUNNY   39  32  76 N14       30.30R WCI  31
DECATUR        CLOUDY    39  33  79 N13       30.30R WCI  31
PEORIA         FAIR      39  29  67 VRB7G17   30.33R WCI  34
LACON*         FAIR      38  29  70 N9        30.32R WCI  31
LINCOLN*       CLOUDY    40  33  76 N9        30.32R
SPRINGFIELD    CLOUDY    40  32  73 N15       30.33R
TAYLORVILLE    CLOUDY    38  32  79 N17       30.32R WCI  28
$$

ILZ033-039-045-046-055>057-062-063-191500-
EAST-CENTRAL ILLINOIS

CITY           SKY/WX    TMP DP  RH WIND       PRES   REMARKS
CHAMPAIGN      PTSUNNY   39  32  76 N17       30.27R WCI  30
DANVILLE*      CLOUDY    39  34  81 N13       30.23R WCI  31
RANTOUL*       CLOUDY    40  34  78 N15       30.27R
MATTOON        CLOUDY    38  33  82 N15       30.26R WCI  29
PARIS*         CLOUDY    38  33  80 N10G16    30.26R WCI  32
$$

ILZ079-100>102-191500-
SOUTHWEST ILLINOIS

CITY           SKY/WX    TMP DP  RH WIND       PRES   REMARKS
ALTON          CLOUDY    37  32  81 NW10      30.34R WCI  30
BELLEVILLE     CLOUDY    40  28  64 NW14      30.32R
CAHOKIA*       CLOUDY    40  28  62 N13       30.34R
SPARTA*        CLOUDY    37  30  74 N10G17    30.33R WCI  30
$$

ILZ064>066-069>071-074>076-080>082-084>086-088>090-092>094-191500-
SOUTH-CENTRAL ILLINOIS

CITY           SKY/WX    TMP DP  RH WIND       PRES   REMARKS
CARBONDALE     CLOUDY    39  27  62 NW15G23   30.31R WCI  31
CAIRO*         CLOUDY    40  27  59 N13       30.30R
EFFINGHAM*     CLOUDY    39  34  81 NW15      30.29R WCI  31
MARION         MOSUNNY   37  25  60 N12       30.29  WCI  30
MT. VERNON     CLOUDY    39  29  67 VRB6      30.30R WCI  35
CENTRALIA*     CLOUDY    39  32  77 NW9       30.30R WCI  32
SALEM*         CLOUDY    39  31  73 NW13G22   30.30R WCI  32
METROPOLIS*    CLOUDY    42  25  51 NW15G23   30.29R
$$

ILZ067-068-072-073-078-083-087-091-191500-
SOUTHEAST ILLINOIS

CITY           SKY/WX    TMP DP  RH WIND       PRES   REMARKS
LAWRENCEVILLE  CLOUDY    41  32  70 NW17G24   30.26R
FLORA*         CLOUDY    39  32  74 NW13      30.29R WCI  32
FAIRFIELD*     CLOUDY    39  30  70 NW7       30.28R WCI  34
HARRISBURG*    CLOUDY    39  29  67 N9        30.30R WCI  33
ROBINSON*      CLOUDY    37  33  85 N14       30.27R WCI  29
CARMI*         CLOUDY    40  31  70 NW15      30.28R
$$

ABBREVIATIONS USED IN REMARKS
   TC - TEMPERATURE IN CELSIUS
  WCI - WIND CHILL INDEX
   HX - HEAT INDEX
  VSB - VISIBILITY
$$





USA.gov is the U.S. government's official web portal to all federal, state and local government web resources and services.